• In Kazakhstan
  • List of Countries
  • For 7 days
  • Water Temperature
  • Weather Map
  • News
  • Weather Widgets
  • user-avatar
    Login

    Hourly Weather Zenica

    Today, 28 February, Friday

    Time Temperature Precipitation Wind Pressure Humidity
    00:00 -4°C° 0 mm 5 mps 668 mmHg 83%
    01:00 -4°C° 0 mm 5 mps 667 mmHg 81%
    02:00 -3°C° 0.2 mm 4 mps 667 mmHg 84%
    03:00 -3°C° 0.2 mm 4 mps 667 mmHg 88%
    04:00 -2°C° 0.2 mm 3 mps 666 mmHg 91%
    05:00 -2°C° 1.3 mm 3 mps 667 mmHg 93%
    06:00 -1°C° 1.3 mm 2 mps 667 mmHg 94%
    07:00 -1°C° 1.3 mm 2 mps 668 mmHg 96%
    08:00 -1°C° 0.2 mm 3 mps 669 mmHg 89%
    09:00 -1°C° 0.2 mm 4 mps 670 mmHg 83%
    10:00 -2°C° 0.2 mm 6 mps 671 mmHg 76%
    11:00 -2°C° 0.1 mm 6 mps 671 mmHg 77%
    12:00 -1°C° 0.1 mm 5 mps 672 mmHg 77%
    13:00 -1°C° 0.1 mm 5 mps 673 mmHg 77%
    14:00 -1°C° 0.2 mm 5 mps 673 mmHg 77%
    15:00 -1°C° 0.2 mm 5 mps 674 mmHg 76%
    16:00 -2°C° 0.2 mm 4 mps 674 mmHg 76%
    17:00 -2°C° 0.1 mm 3 mps 675 mmHg 79%
    18:00 -4°C° 0.1 mm 3 mps 675 mmHg 82%
    19:00 -5°C° 0.1 mm 2 mps 676 mmHg 85%
    20:00 -3°C° 0 mm 1 mps 676 mmHg 85%
    21:00 -3°C° 0 mm 1 mps 677 mmHg 86%
    22:00 -4°C° 0 mm 1 mps 677 mmHg 87%
    23:00 -4°C° 0 mm 1 mps 677 mmHg 87%

    Tomorrow, 29 February, Saturday

    Time Temperature Precipitation Wind Pressure Humidity
    00:00 -4°C° 0 mm 1 mps 677 mmHg 88%
    01:00 -5°C° 0 mm 0 mps 677 mmHg 89%
    02:00 -4°C° 0 mm 1 mps 677 mmHg 89%
    03:00 -6°C° 0 mm 1 mps 677 mmHg 89%
    04:00 -6°C° 0 mm 1 mps 676 mmHg 88%
    05:00 -6°C° 0 mm 1 mps 676 mmHg 86%
    06:00 -4°C° 0 mm 1 mps 676 mmHg 84%
    07:00 -4°C° 0 mm 1 mps 676 mmHg 82%
    08:00 -2°C° 0 mm 1 mps 676 mmHg 77%
    09:00 0°C° 0 mm 1 mps 677 mmHg 72%
    10:00 +1°C° 0 mm 2 mps 677 mmHg 67%
    11:00 +2°C° 0 mm 2 mps 677 mmHg 67%
    12:00 +3°C° 0 mm 2 mps 677 mmHg 66%
    13:00 +4°C° 0 mm 2 mps 676 mmHg 66%
    14:00 +3°C° 0 mm 2 mps 676 mmHg 68%
    15:00 +3°C° 0 mm 2 mps 675 mmHg 71%
    16:00 +3°C° 0 mm 2 mps 675 mmHg 74%
    17:00 +1°C° 0 mm 2 mps 674 mmHg 75%
    18:00 -1°C° 0 mm 3 mps 674 mmHg 77%
    19:00 -2°C° 0 mm 3 mps 673 mmHg 79%
    20:00 -2°C° 0 mm 3 mps 673 mmHg 76%
    21:00 -2°C° 0 mm 3 mps 673 mmHg 72%
    22:00 -2°C° 0 mm 3 mps 673 mmHg 69%
    23:00 -2°C° 0 mm 3 mps 673 mmHg 71%

    Day after tomorrow, 1 March, Sunday

    Time Temperature Precipitation Wind Pressure Humidity
    00:00 -2°C° 0 mm 3 mps 673 mmHg 73%
    01:00 -2°C° 0 mm 3 mps 673 mmHg 74%
    02:00 -2°C° 0 mm 3 mps 673 mmHg 75%
    03:00 -2°C° 0 mm 3 mps 673 mmHg 76%
    04:00 -2°C° 0 mm 3 mps 673 mmHg 77%
    05:00 -2°C° 0 mm 3 mps 672 mmHg 78%
    06:00 -1°C° 0 mm 3 mps 672 mmHg 80%
    07:00 -1°C° 0 mm 3 mps 672 mmHg 82%
    08:00 0°C° 0 mm 3 mps 672 mmHg 82%
    09:00 +1°C° 0 mm 3 mps 673 mmHg 83%
    10:00 +2°C° 0 mm 3 mps 673 mmHg 84%
    11:00 +3°C° 0 mm 3 mps 673 mmHg 85%
    12:00 +3°C° 0 mm 3 mps 672 mmHg 86%
    13:00 +4°C° 0 mm 3 mps 672 mmHg 87%
    14:00 +3°C° 0.2 mm 3 mps 672 mmHg 90%
    15:00 +3°C° 0.2 mm 3 mps 671 mmHg 92%
    16:00 +3°C° 0.2 mm 3 mps 670 mmHg 95%
    17:00 +2°C° 1.1 mm 3 mps 670 mmHg 95%
    18:00 +3°C° 1.1 mm 2 mps 670 mmHg 96%
    19:00 +3°C° 1.1 mm 2 mps 669 mmHg 97%
    20:00 +3°C° 0.8 mm 2 mps 669 mmHg 97%
    21:00 +3°C° 0.8 mm 2 mps 669 mmHg 97%
    22:00 +4°C° 0.8 mm 2 mps 668 mmHg 97%
    23:00 +3°C° 0.9 mm 3 mps 668 mmHg 97%

    2 March, Monday

    Time Temperature Precipitation Wind Pressure Humidity
    00:00 +3°C° 0.9 mm 3 mps 668 mmHg 97%
    01:00 +3°C° 0.9 mm 3 mps 667 mmHg 97%
    02:00 +3°C° 1.2 mm 3 mps 667 mmHg 96%
    03:00 +4°C° 1.2 mm 3 mps 667 mmHg 96%
    04:00 +4°C° 1.2 mm 3 mps 666 mmHg 96%
    05:00 +3°C° 0.6 mm 3 mps 667 mmHg 96%
    06:00 +3°C° 0.6 mm 3 mps 667 mmHg 95%
    07:00 +4°C° 0.6 mm 2 mps 667 mmHg 95%
    08:00 +3°C° 0.4 mm 3 mps 667 mmHg 92%
    09:00 +4°C° 0.4 mm 4 mps 668 mmHg 88%
    10:00 +5°C° 0.4 mm 4 mps 668 mmHg 84%
    11:00 +5°C° 0.1 mm 5 mps 668 mmHg 80%
    12:00 +6°C° 0.1 mm 5 mps 668 mmHg 76%
    13:00 +7°C° 0.1 mm 6 mps 669 mmHg 72%
    14:00 +6°C° 0 mm 5 mps 669 mmHg 74%
    15:00 +6°C° 0 mm 5 mps 668 mmHg 75%
    16:00 +5°C° 0 mm 4 mps 668 mmHg 77%
    17:00 +5°C° 0 mm 4 mps 668 mmHg 82%
    18:00 +4°C° 0 mm 3 mps 668 mmHg 86%
    19:00 +3°C° 0 mm 3 mps 668 mmHg 91%
    20:00 +3°C° 0 mm 3 mps 667 mmHg 91%
    21:00 +3°C° 0 mm 3 mps 667 mmHg 91%
    22:00 +3°C° 0 mm 4 mps 666 mmHg 91%
    23:00 +3°C° 0.1 mm 4 mps 666 mmHg 91%

    3 March, Tuesday

    Time Temperature Precipitation Wind Pressure Humidity
    00:00 +3°C° 0.1 mm 4 mps 665 mmHg 91%
    01:00 +2°C° 0.1 mm 5 mps 664 mmHg 92%
    02:00 +3°C° 2.2 mm 4 mps 664 mmHg 93%
    03:00 +2°C° 2.2 mm 3 mps 663 mmHg 94%
    04:00 +2°C° 2.2 mm 3 mps 662 mmHg 96%
    05:00 +3°C° 2.2 mm 3 mps 662 mmHg 95%
    06:00 +3°C° 2.2 mm 4 mps 662 mmHg 95%
    07:00 +4°C° 2.2 mm 4 mps 662 mmHg 95%
    08:00 +5°C° 0.1 mm 4 mps 663 mmHg 89%
    09:00 +5°C° 0.1 mm 5 mps 664 mmHg 83%
    10:00 +6°C° 0.1 mm 5 mps 664 mmHg 78%
    11:00 +7°C° 0 mm 4 mps 665 mmHg 73%
    12:00 +9°C° 0 mm 3 mps 665 mmHg 68%
    13:00 +10°C° 0 mm 3 mps 666 mmHg 63%
    14:00 +9°C° 0.1 mm 2 mps 666 mmHg 68%
    15:00 +8°C° 0.1 mm 2 mps 666 mmHg 73%
    16:00 +8°C° 0.1 mm 1 mps 666 mmHg 79%
    17:00 +6°C° 1.6 mm 2 mps 666 mmHg 85%
    18:00 +4°C° 1.6 mm 2 mps 666 mmHg 91%
    19:00 +3°C° 1.6 mm 2 mps 666 mmHg 97%
    20:00 +2°C° 2.1 mm 2 mps 666 mmHg 97%
    21:00 0°C° 2.1 mm 3 mps 666 mmHg 97%
    22:00 -1°C° 2.1 mm 3 mps 666 mmHg 98%
    23:00 -1°C° 2 mm 3 mps 666 mmHg 97%

    4 March, Wednesday

    Time Temperature Precipitation Wind Pressure Humidity
    00:00 -2°C° 2 mm 3 mps 666 mmHg 97%
    01:00 -2°C° 2 mm 3 mps 666 mmHg 97%
    02:00 -3°C° 2 mm 2 mps 666 mmHg 97%
    03:00 -3°C° 2 mm 2 mps 666 mmHg 97%
    04:00 -3°C° 2 mm 2 mps 666 mmHg 97%
    05:00 -3°C° 1.2 mm 2 mps 666 mmHg 97%
    06:00 -3°C° 1.2 mm 2 mps 666 mmHg 97%
    07:00 -4°C° 1.2 mm 2 mps 666 mmHg 97%
    08:00 -3°C° 0.7 mm 2 mps 666 mmHg 96%
    09:00 -3°C° 0.7 mm 2 mps 666 mmHg 96%
    10:00 -2°C° 0.7 mm 2 mps 666 mmHg 96%
    11:00 -2°C° 0.2 mm 2 mps 667 mmHg 96%
    12:00 -1°C° 0.2 mm 2 mps 667 mmHg 96%
    13:00 -1°C° 0.2 mm 2 mps 667 mmHg 96%
    14:00 -1°C° 0.1 mm 2 mps 667 mmHg 96%
    15:00 -1°C° 0.1 mm 2 mps 667 mmHg 95%
    16:00 +1°C° 0.1 mm 1 mps 667 mmHg 95%
    17:00 0°C° 0 mm 1 mps 667 mmHg 95%
    18:00 -1°C° 0 mm 1 mps 667 mmHg 95%
    19:00 -3°C° 0 mm 0 mps 667 mmHg 95%
    20:00 -3°C° 0 mm 0 mps 667 mmHg 95%
    21:00 -4°C° 0 mm 0 mps 667 mmHg 94%
    22:00 -4°C° 0 mm 0 mps 667 mmHg 93%
    23:00 -3°C° 0 mm 1 mps 667 mmHg 92%
    Show more